Skip Page Navigation
NASA JPL Caltech
NASA Logo - Jet Propulsion Laboratory + View the NASA Portal
+ Near-Earth Object (NEO) Program
Search JPL
JPL Home Earth Solar System Stars & Galaxies Technology
JPL Solar System Dynamics
BODIES ORBITS EPHEMERIDES TOOLS PHYSICAL DATA DISCOVERY FAQ SITE MAP
JPL Small-Body Database Browser
Search: [ help ]  
(2008 ER7)
Classification: Apollo [NEO, PHA]          SPK-ID: 3405090
Ephemeris | Orbit Diagram | Orbital Elements | Physical Parameters | Close-Approach Data ]

[ hide orbit diagram ]
Orbit Diagram
Note: Make sure you have Java enabled on your browser to see the applet. This applet is provided as a 3D orbit visualization tool. The applet was implemented using 2-body methods, and hence should not be used for determining accurate long-term trajectories (over several years or decades) or planetary encounter circumstances. For accurate long-term ephemerides, please instead use our Horizons system.
Orbit Viewer

Additional Notes: the orbits shown in the applet are color coded. The planets are white lines, and the asteroid/comet is a blue line. The bright white line indicates the portion of the orbit that is above the ecliptic plane, and the darker portion is below the ecliptic plane. Likewise for the asteroid/comet orbit, the light blue indicates the portion above the ecliptic plane, and the dark blue the portion below the ecliptic plane.

Orbit Viewer applet originally written and kindly provided by Osamu Ajiki (AstroArts), and further modified by Ron Baalke (JPL).


Orbital Elements at Epoch 2456400.5 (2013-Apr-18.0) TDB
Reference: JPL 25 (heliocentric ecliptic J2000)
 Element Value Uncertainty (1-sigma)   Units 
e .6241502678017674 4.9546e-07  
a 1.487253906590408 6.7147e-07 AU
q .5589839825027799 9.502e-07 AU
i 2.245337156694488 1.5355e-05 deg
node 323.7364211245455 0.0002693 deg
peri 80.71657114367353 0.00024912 deg
M 354.3301325099526 0.00052016 deg
tp 2456410.933896221861
(2013-Apr-28.43389622)
0.00096426 JED
period 662.4850839042244
1.81
0.00044865
1.228e-06
d
yr
n .5434084611813619 3.6801e-07 deg/d
Q 2.415523830678035 1.0906e-06 AU
  Orbit Determination Parameters
   # obs. used (total)      102  
   data-arc span      497 days (1.36 yr)  
   first obs. used      2008-03-06  
   last obs. used      2009-07-16  
   planetary ephem.      DE405  
   SB-pert. ephem.      SB405-CPV-2  
   condition code      2  
   fit RMS      .45775  
   data source      ORB  
   producer      Otto Matic  
   solution date      2011-Sep-14 20:26:10  

Additional Information
 Earth MOID = .00129591 AU 
 T_jup = 4.333 
[ show covariance matrix ]

Ephemeris | Orbit Diagram | Orbital Elements | Physical Parameters | Close-Approach Data ]

Physical Parameter Table
Parameter Symbol Value Units Sigma Reference Notes
absolute magnitude H 20.052 mag .41735 25 autocmod 2.5a

[ show close-approach data ]
Ephemeris | Orbit Diagram | Orbital Elements | Physical Parameters | Close-Approach Data ]
ABOUT SSD CREDITS/AWARDS PRIVACY/COPYRIGHT GLOSSARY LINKS
FirstGov 2013-May-23 01:09 UT
(server date/time)  
NASA Home Page
Site Manager:   Donald K. Yeomans
Webmaster  Alan B. Chamberlin